| time (UTC) | temp C | wind direction | speed KPH | gust KPH | rain 1hr cm | rain 24hr cm | rain mn cm | humidity % | barometer mb |
| 20260504151005 | 15 | 179 | 11.3 | 16.1 | 0.00 | 0.00 | 0.00 | 49 | 1003.0 |
| 20260504150505 | 15 | 177 | 11.3 | 17.7 | 0.00 | 0.00 | 0.00 | 49 | 1003.1 |
| 20260504141049 | 11 | 180 | 8.0 | 11.3 | 0.00 | 0.00 | 0.00 | 49 | 1003.8 |
| 20260504140549 | 11 | 175 | 6.4 | 9.7 | 0.00 | 0.00 | 0.00 | 47 | 1003.8 |
| 20260504130543 | 9 | 201 | 3.2 | 6.4 | 0.00 | 0.00 | 0.00 | 46 | 1003.8 |
| 20260504110534 | 10 | 165 | 3.2 | 8.0 | 0.00 | 0.00 | 0.00 | 53 | 1004.3 |
| 20260504100526 | 9 | 204 | 4.8 | 9.7 | 0.00 | 0.00 | 0.00 | 53 | 1004.4 |
| 20260504081613 | 5 | 248 | 1.6 | 9.7 | 0.00 | 0.00 | 0.00 | 54 | 1004.5 |
| 20260504081012 | 6 | 248 | 6.4 | 9.7 | 0.00 | 0.00 | 0.00 | 54 | 1004.5 |
| 20260504080512 | 6 | 249 | 3.2 | 9.7 | 0.00 | 0.00 | 0.00 | 54 | 1004.7 |
| 20260504050535 | 7 | 213 | 3.2 | 6.4 | 0.00 | 0.00 | 0.00 | 53 | 1004.3 |
| 20260504045531 | 7 | 176 | 4.8 | 6.4 | 0.00 | 0.00 | 0.00 | 53 | 1004.3 |
| 20260504045030 | 7 | 318 | 0.0 | 1.6 | 0.00 | 0.00 | 0.00 | 53 | 1004.3 |
| 20260504044529 | 7 | 318 | 0.0 | 3.2 | 0.00 | 0.00 | 0.00 | 54 | 1004.3 |
| 20260504044027 | 7 | 318 | 0.0 | 4.8 | 0.00 | 0.00 | 0.00 | 54 | 1004.3 |
| 20260504043527 | 8 | 318 | 0.0 | 4.8 | 0.00 | 0.00 | 0.00 | 54 | 1004.3 |
| 20260504043024 | 8 | 318 | 0.0 | 4.8 | 0.00 | 0.00 | 0.00 | 54 | 1004.2 |
| 20260504042523 | 8 | 318 | 1.6 | 4.8 | 0.00 | 0.00 | 0.00 | 54 | 1004.2 |
| 20260504042021 | 8 | 318 | 0.0 | 3.2 | 0.00 | 0.00 | 0.00 | 54 | 1004.3 |
| 20260504041535 | 8 | 318 | 0.0 | 3.2 | 0.00 | 0.00 | 0.00 | 54 | 1004.3 |
| 20260504041019 | 7 | 318 | 0.0 | 4.8 | 0.00 | 0.00 | 0.00 | 52 | 1004.3 |
| 20260504040517 | 7 | 318 | 0.0 | 4.8 | 0.00 | 0.00 | 0.00 | 51 | 1004.4 |
| 20260504040020 | 7 | 70 | 3.2 | 4.8 | 0.00 | 0.00 | 0.00 | 50 | 1004.3 |
| 20260504035514 | 8 | 160 | 0.0 | 3.2 | 0.00 | 0.00 | 0.00 | 50 | 1004.2 |
| 20260504035013 | 8 | 160 | 1.6 | 6.4 | 0.00 | 0.00 | 0.00 | 49 | 1004.2 |
| 20260504034511 | 9 | 160 | 3.2 | 8.0 | 0.00 | 0.00 | 0.00 | 48 | 1004.2 |
| 20260504034009 | 10 | 163 | 3.2 | 8.0 | 0.00 | 0.00 | 0.00 | 46 | 1004.2 |
| 20260504033508 | 12 | 118 | 3.2 | 6.4 | 0.00 | 0.00 | 0.00 | 41 | 1004.2 |
| 20260504033006 | 13 | 91 | 1.6 | 6.4 | 0.00 | 0.00 | 0.00 | 41 | 1004.2 |
| 20260504032505 | 13 | 305 | 3.2 | 6.4 | 0.00 | 0.00 | 0.00 | 37 | 1004.1 |
| 20260504032003 | 13 | 305 | 1.6 | 3.2 | 0.00 | 0.00 | 0.00 | 42 | 1004.1 |
| 20260504031503 | 13 | 51 | 0.0 | 3.2 | 0.00 | 0.00 | 0.00 | 41 | 1004.1 |
| 20260504031004 | 13 | 51 | 0.0 | 1.6 | 0.00 | 0.00 | 0.00 | 42 | 1004.0 |
| 20260504030501 | 13 | 51 | 0.0 | 3.2 | 0.00 | 0.00 | 0.00 | 40 | 1003.9 |
| 20260504030100 | 13 | 51 | 0.0 | 4.8 | 0.00 | 0.00 | 0.00 | 39 | 1004.0 |
| 20260504025559 | 13 | 51 | 1.6 | 4.8 | 0.00 | 0.00 | 0.00 | 40 | 1004.0 |
| 20260504025058 | 13 | 51 | 1.6 | 4.8 | 0.00 | 0.00 | 0.00 | 39 | 1003.9 |
| 20260504024556 | 13 | 301 | 0.0 | 4.8 | 0.00 | 0.00 | 0.00 | 38 | 1003.8 |
| 20260504024056 | 14 | 293 | 1.6 | 6.4 | 0.00 | 0.00 | 0.00 | 39 | 1003.8 |
| 20260504023553 | 14 | 305 | 3.2 | 6.4 | 0.00 | 0.00 | 0.00 | 37 | 1003.8 |
| 20260504023051 | 15 | 305 | 3.2 | 6.4 | 0.00 | 0.00 | 0.00 | 37 | 1003.8 |
| 20260504022550 | 15 | 323 | 4.8 | 8.0 | 0.00 | 0.00 | 0.00 | 35 | 1003.7 |
| 20260504022049 | 15 | 302 | 3.2 | 8.0 | 0.00 | 0.00 | 0.00 | 37 | 1003.7 |
| 20260504021552 | 15 | 313 | 3.2 | 9.7 | 0.00 | 0.00 | 0.00 | 36 | 1003.7 |
| 20260504021049 | 16 | 309 | 4.8 | 8.0 | 0.00 | 0.00 | 0.00 | 36 | 1003.7 |
| 20260504020547 | 16 | 311 | 4.8 | 8.0 | 0.00 | 0.00 | 0.00 | 36 | 1003.8 |
| 20260504020044 | 16 | 314 | 3.2 | 8.0 | 0.00 | 0.00 | 0.00 | 36 | 1003.7 |
| 20260504015541 | 17 | 332 | 1.6 | 6.4 | 0.00 | 0.00 | 0.00 | 35 | 1003.7 |
| 20260504015040 | 17 | 345 | 4.8 | 6.4 | 0.00 | 0.00 | 0.00 | 33 | 1003.8 |
| 20260504014540 | 17 | 336 | 1.6 | 6.4 | 0.00 | 0.00 | 0.00 | 31 | 1003.7 |
| 20260504014037 | 17 | 350 | 1.6 | 6.4 | 0.00 | 0.00 | 0.00 | 33 | 1003.7 |
| 20260504013535 | 18 | 350 | 1.6 | 4.8 | 0.00 | 0.00 | 0.00 | 32 | 1003.7 |
| 20260504013044 | 18 | 359 | 0.0 | 4.8 | 0.00 | 0.00 | 0.00 | 32 | 1003.8 |
| 20260504012532 | 18 | 359 | 0.0 | 4.8 | 0.00 | 0.00 | 0.00 | 32 | 1003.9 |
| 20260504012032 | 18 | 10 | 1.6 | 8.0 | 0.00 | 0.00 | 0.00 | 31 | 1003.9 |
| 20260504011530 | 19 | 8 | 3.2 | 9.7 | 0.00 | 0.00 | 0.00 | 30 | 1003.9 |
| 20260504011028 | 19 | 28 | 4.8 | 17.7 | 0.00 | 0.00 | 0.00 | 29 | 1004.0 |
| 20260504010527 | 20 | 3 | 8.0 | 17.7 | 0.00 | 0.00 | 0.00 | 27 | 1004.0 |
| 20260504010026 | 20 | 345 | 6.4 | 16.1 | 0.00 | 0.00 | 0.00 | 27 | 1004.0 |
| 20260504005526 | 20 | 350 | 8.0 | 16.1 | 0.00 | 0.00 | 0.00 | 25 | 1004.1 |
| 20260504005023 | 20 | 312 | 8.0 | 16.1 | 0.00 | 0.00 | 0.00 | 26 | 1004.1 |
| 20260504004522 | 20 | 345 | 9.7 | 17.7 | 0.00 | 0.00 | 0.00 | 26 | 1004.1 |
| 20260504004022 | 20 | 321 | 11.3 | 19.3 | 0.00 | 0.00 | 0.00 | 27 | 1004.2 |
| 20260504003520 | 20 | 323 | 8.0 | 19.3 | 0.00 | 0.00 | 0.00 | 27 | 1004.2 |
| 20260504003018 | 20 | 8 | 9.7 | 17.7 | 0.00 | 0.00 | 0.00 | 26 | 1004.2 |
| 20260504002517 | 20 | 9 | 9.7 | 17.7 | 0.00 | 0.00 | 0.00 | 27 | 1004.2 |
| 20260504002017 | 21 | 21 | 11.3 | 24.1 | 0.00 | 0.00 | 0.00 | 25 | 1004.3 |
| 20260504001524 | 21 | 317 | 11.3 | 24.1 | 0.00 | 0.00 | 0.00 | 25 | 1004.3 |
| 20260504001015 | 21 | 350 | 8.0 | 27.4 | 0.00 | 0.00 | 0.00 | 25 | 1004.4 |
| 20260504000515 | 21 | 321 | 9.7 | 27.4 | 0.00 | 0.00 | 0.00 | 24 | 1004.3 |
| 20260504000012 | 21 | 5 | 11.3 | 20.9 | 0.00 | 0.00 | 0.00 | 25 | 1004.3 |
| 20260503235510 | 21 | 350 | 9.7 | 16.1 | 0.00 | 0.00 | 0.00 | 24 | 1004.4 |
| 20260503235009 | 21 | 15 | 9.7 | 16.1 | 0.00 | 0.00 | 0.00 | 25 | 1004.3 |
| 20260503234508 | 21 | 355 | 8.0 | 16.1 | 0.00 | 0.00 | 0.00 | 25 | 1004.4 |
| 20260503234007 | 21 | 21 | 8.0 | 16.1 | 0.00 | 0.00 | 0.00 | 25 | 1004.4 |
| 20260503233506 | 21 | 350 | 8.0 | 14.5 | 0.00 | 0.00 | 0.00 | 24 | 1004.5 |
| 20260503233007 | 21 | 350 | 8.0 | 12.9 | 0.00 | 0.00 | 0.00 | 24 | 1004.5 |
| 20260503232502 | 21 | 345 | 6.4 | 12.9 | 0.00 | 0.00 | 0.00 | 24 | 1004.7 |
| 20260503232101 | 21 | 355 | 6.4 | 14.5 | 0.00 | 0.00 | 0.00 | 24 | 1004.8 |
| 20260503231600 | 21 | 19 | 6.4 | 14.5 | 0.00 | 0.00 | 0.00 | 24 | 1004.7 |
| 20260503231100 | 21 | 15 | 6.4 | 14.5 | 0.00 | 0.00 | 0.00 | 23 | 1004.8 |
| 20260503230559 | 21 | 4 | 8.0 | 16.1 | 0.00 | 0.00 | 0.00 | 24 | 1004.7 |
| 20260503230101 | 21 | 350 | 9.7 | 19.3 | 0.00 | 0.00 | 0.00 | 23 | 1004.7 |
| 20260503225553 | 21 | 322 | 12.9 | 20.9 | 0.00 | 0.00 | 0.00 | 23 | 1004.7 |
| 20260503225052 | 22 | 341 | 12.9 | 20.9 | 0.00 | 0.00 | 0.00 | 24 | 1004.7 |
| 20260503224559 | 22 | 5 | 11.3 | 20.9 | 0.00 | 0.00 | 0.00 | 24 | 1004.7 |
| 20260503224050 | 22 | 345 | 14.5 | 20.9 | 0.00 | 0.00 | 0.00 | 24 | 1004.8 |
| 20260503223547 | 22 | 30 | 14.5 | 20.9 | 0.00 | 0.00 | 0.00 | 23 | 1004.9 |
| 20260503223046 | 22 | 355 | 11.3 | 24.1 | 0.00 | 0.00 | 0.00 | 22 | 1005.0 |
| 20260503222544 | 22 | 38 | 12.9 | 24.1 | 0.00 | 0.00 | 0.00 | 23 | 1005.0 |
| 20260503222043 | 22 | 32 | 16.1 | 22.5 | 0.00 | 0.00 | 0.00 | 23 | 1005.1 |
| 20260503221556 | 22 | 30 | 14.5 | 22.5 | 0.00 | 0.00 | 0.00 | 23 | 1005.1 |
| 20260503221044 | 22 | 35 | 12.9 | 25.7 | 0.00 | 0.00 | 0.00 | 24 | 1005.1 |
| 20260503220539 | 22 | 355 | 14.5 | 25.7 | 0.00 | 0.00 | 0.00 | 24 | 1005.2 |
| 20260503220038 | 22 | 359 | 14.5 | 24.1 | 0.00 | 0.00 | 0.00 | 23 | 1005.4 |
| 20260503215536 | 22 | 330 | 12.9 | 24.1 | 0.00 | 0.00 | 0.00 | 25 | 1005.5 |
| 20260503215034 | 22 | 336 | 8.0 | 17.7 | 0.00 | 0.00 | 0.00 | 23 | 1005.6 |
| 20260503214539 | 22 | 332 | 9.7 | 27.4 | 0.00 | 0.00 | 0.00 | 24 | 1005.8 |
| 20260503214031 | 22 | 9 | 14.5 | 27.4 | 0.00 | 0.00 | 0.00 | 24 | 1005.8 |
| 20260503213530 | 22 | 45 | 12.9 | 25.7 | 0.00 | 0.00 | 0.00 | 25 | 1005.8 |
| 20260503213028 | 22 | 350 | 17.7 | 25.7 | 0.00 | 0.00 | 0.00 | 24 | 1005.8 |
| 20260503212526 | 22 | 12 | 14.5 | 24.1 | 0.00 | 0.00 | 0.00 | 24 | 1006.0 |
| 20260503212026 | 22 | 359 | 4.8 | 12.9 | 0.00 | 0.00 | 0.00 | 22 | 1006.1 |
| 20260503211524 | 22 | 236 | 4.8 | 12.9 | 0.00 | 0.00 | 0.00 | 19 | 1006.3 |
| 20260503211023 | 22 | 329 | 3.2 | 9.7 | 0.00 | 0.00 | 0.00 | 20 | 1006.5 |
| 20260503210521 | 22 | 297 | 6.4 | 14.5 | 0.00 | 0.00 | 0.00 | 20 | 1006.5 |
| 20260503210019 | 22 | 321 | 3.2 | 19.3 | 0.00 | 0.00 | 0.00 | 20 | 1006.5 |
| 20260503205518 | 22 | 247 | 12.9 | 19.3 | 0.00 | 0.00 | 0.00 | 22 | 1006.8 |
| 20260503205017 | 22 | 232 | 8.0 | 17.7 | 0.00 | 0.00 | 0.00 | 21 | 1006.8 |
| 20260503204516 | 22 | 191 | 1.6 | 16.1 | 0.00 | 0.00 | 0.00 | 20 | 1006.8 |
| 20260503204013 | 22 | 126 | 9.7 | 32.2 | 0.00 | 0.00 | 0.00 | 20 | 1006.9 |
| 20260503203516 | 22 | 190 | 6.4 | 32.2 | 0.00 | 0.00 | 0.00 | 20 | 1006.9 |
| 20260503203012 | 22 | 184 | 1.6 | 9.7 | 0.00 | 0.00 | 0.00 | 19 | 1007.1 |
| 20260503202511 | 22 | 166 | 4.8 | 9.7 | 0.00 | 0.00 | 0.00 | 19 | 1007.1 |
| 20260503202011 | 22 | 224 | 0.0 | 8.0 | 0.00 | 0.00 | 0.00 | 20 | 1007.2 |
| 20260503201505 | 22 | 215 | 0.0 | 11.3 | 0.00 | 0.00 | 0.00 | 19 | 1007.4 |
| 20260503201004 | 22 | 190 | 6.4 | 16.1 | 0.00 | 0.00 | 0.00 | 19 | 1007.5 |
| 20260503200502 | 22 | 172 | 4.8 | 16.1 | 0.00 | 0.00 | 0.00 | 19 | 1007.6 |
| 20260503200001 | 22 | 165 | 6.4 | 14.5 | 0.00 | 0.00 | 0.00 | 20 | 1007.8 |
| 20260503195600 | 22 | 249 | 6.4 | 16.1 | 0.00 | 0.00 | 0.00 | 20 | 1007.7 |
| 20260503195058 | 22 | 162 | 6.4 | 16.1 | 0.00 | 0.00 | 0.00 | 20 | 1007.9 |
| 20260503194607 | 22 | 163 | 9.7 | 17.7 | 0.00 | 0.00 | 0.00 | 20 | 1007.9 |
| 20260503194056 | 22 | 153 | 8.0 | 16.1 | 0.00 | 0.00 | 0.00 | 21 | 1008.0 |
| 20260503193555 | 22 | 84 | 8.0 | 14.5 | 0.00 | 0.00 | 0.00 | 21 | 1008.0 |
| 20260503193103 | 22 | 196 | 8.0 | 17.7 | 0.00 | 0.00 | 0.00 | 23 | 1008.1 |
| 20260503192550 | 22 | 147 | 8.0 | 12.9 | 0.00 | 0.00 | 0.00 | 22 | 1008.2 |
| 20260503192049 | 22 | 305 | 3.2 | 14.5 | 0.00 | 0.00 | 0.00 | 20 | 1008.2 |
| 20260503191607 | 22 | 95 | 6.4 | 16.1 | 0.00 | 0.00 | 0.00 | 21 | 1008.4 |
| 20260503191047 | 22 | 188 | 1.6 | 14.5 | 0.00 | 0.00 | 0.00 | 20 | 1008.5 |
| 20260503190546 | 22 | 350 | 1.6 | 16.1 | 0.00 | 0.00 | 0.00 | 21 | 1008.6 |
| 20260503190044 | 22 | 180 | 6.4 | 24.1 | 0.00 | 0.00 | 0.00 | 20 | 1008.7 |
| 20260503185542 | 22 | 153 | 14.5 | 24.1 | 0.00 | 0.00 | 0.00 | 19 | 1008.8 |
| 20260503185041 | 22 | 217 | 4.8 | 16.1 | 0.00 | 0.00 | 0.00 | 21 | 1008.9 |
| 20260503184540 | 22 | 350 | 11.3 | 17.7 | 0.00 | 0.00 | 0.00 | 22 | 1008.9 |
| 20260503184041 | 22 | 92 | 9.7 | 27.4 | 0.00 | 0.00 | 0.00 | 20 | 1008.9 |
| 20260503183537 | 22 | 128 | 14.5 | 27.4 | 0.00 | 0.00 | 0.00 | 22 | 1009.1 |
| 20260503183035 | 22 | 150 | 14.5 | 20.9 | 0.00 | 0.00 | 0.00 | 22 | 1009.2 |
| 20260503182535 | 21 | 180 | 11.3 | 24.1 | 0.00 | 0.00 | 0.00 | 22 | 1009.2 |
| 20260503182032 | 21 | 159 | 11.3 | 20.9 | 0.00 | 0.00 | 0.00 | 23 | 1009.3 |
| 20260503181544 | 21 | 173 | 8.0 | 16.1 | 0.00 | 0.00 | 0.00 | 25 | 1009.3 |
| 20260503181029 | 21 | 147 | 11.3 | 16.1 | 0.00 | 0.00 | 0.00 | 23 | 1009.5 |
| 20260503180529 | 21 | 140 | 9.7 | 24.1 | 0.00 | 0.00 | 0.00 | 24 | 1009.6 |
| 20260503180029 | 21 | 170 | 12.9 | 27.4 | 0.00 | 0.00 | 0.00 | 25 | 1009.6 |
| 20260503175525 | 21 | 134 | 16.1 | 27.4 | 0.00 | 0.00 | 0.00 | 26 | 1009.8 |
| 20260503175023 | 21 | 163 | 12.9 | 19.3 | 0.00 | 0.00 | 0.00 | 25 | 1009.8 |
| 20260503174522 | 20 | 176 | 11.3 | 17.7 | 0.00 | 0.00 | 0.00 | 27 | 1009.9 |
| 20260503174020 | 20 | 133 | 8.0 | 20.9 | 0.00 | 0.00 | 0.00 | 28 | 1010.0 |
| 20260503173519 | 20 | 172 | 12.9 | 22.5 | 0.00 | 0.00 | 0.00 | 28 | 1010.0 |
| 20260503173017 | 20 | 143 | 9.7 | 20.9 | 0.00 | 0.00 | 0.00 | 27 | 1010.1 |
| 20260503172515 | 20 | 186 | 12.9 | 20.9 | 0.00 | 0.00 | 0.00 | 28 | 1010.1 |
| 20260503172015 | 20 | 183 | 14.5 | 20.9 | 0.00 | 0.00 | 0.00 | 27 | 1010.2 |
| 20260503171512 | 20 | 160 | 9.7 | 17.7 | 0.00 | 0.00 | 0.00 | 28 | 1010.2 |
| 20260503171011 | 20 | 192 | 9.7 | 19.3 | 0.00 | 0.00 | 0.00 | 28 | 1010.2 |
| 20260503170510 | 20 | 132 | 12.9 | 17.7 | 0.00 | 0.00 | 0.00 | 28 | 1010.4 |